Tracking 20712 objects as of 28-May-2020
HD Live streaming from Space Station
objects crossing your sky now

COSMOS 1691 DEB

Track COSMOS 1691 DEB now!
10-day predictions


NORAD ID: 16272
Int'l Code: 1985-094R
Perigee: 1,334.9 km
Apogee: 1,410.5 km
Inclination: 82.6 °
Period: 113.0 minutes
Semi major axis: 7743 km
RCS: 0.0423 m2 (small)
Launch date: October 9, 1985
Source: Commonwealth of Independent States (former USSR) (CIS)
Launch site: PLESETSK MISSILE AND SPACE COMPLEX (PKMTR)

Note: This is SATELLITE DEBRIS
aabbcc
Your satellite tracking list
Your tracking list is empty




NASA's NSSDC Master Catalog

Two Line Element Set (TLE):
1 16272U 85094R   20149.42563964 +.00000114 +00000-0 +49056-3 0  9992
2 16272 082.6157 131.6947 0048824 039.2005 077.0940 12.74026229606380
Source of the keplerian elements: AFSPC